Regional Weather Roundup
Issued by NWS Shreveport, LA

Home | Current Version | Previous Version | Text Only | Print | Product List | Glossary On
Versions: 1 2 3 4 5 6 7 8 9 10 11 12 13 14 15 16 17 18 19 20 21 22 23 24 25 26 27 28
000
ASUS44 KSHV 010410
RWRSHV

THE FOUR STATE AREA WEATHER ROUNDUP
NATIONAL WEATHER SERVICE SHREVEPORT LA
1100 PM CDT SAT JUL 31 2021

NOTE:  "FAIR" INDICATES FEW OR NO CLOUDS BELOW 12000 FEET
WITH NO SIGNIFICANT WEATHER AND/OR OBSTRUCTIONS TO VISIBILITY.

!LAZ001-LAZ014-TXZ097-010500
SHREVEPORT...MONROE...TEXARKANA RADIOS

CITY           SKY/WX    TMP DP  RH WIND       PRES   REMARKS
SHREVEPORT     CLEAR     86  75  69 S5        29.96F
MONROE         CLEAR     82  79  90 CALM      29.96F
NATCHITOCHES   CLEAR     81  79  93 CALM      29.97F
TEXARKANA      CLEAR     86  76  71 SW6       29.98S
$$

!LAZ001-LAZ014-TXZ097-010500
OTHER LOCATIONS...

CITY           SKY/WX    TMP DP  RH WIND       PRES   REMARKS
DOWNTOWN SHV   CLEAR     88  75  65 MISG      29.97R
BOSSIER CITY   CLEAR     86  76  70 SW3       29.97R
RUSTON         NOT AVBL
LITTLE ROCK    CLEAR     86  74  67 W8        29.96R
EL DORADO      CLEAR     82  78  88 S3        29.97S
JACKSON        CLEAR     81  75  82 CALM      29.97F
NEW ORLEANS    PTCLDY    79  75  87 S5        30.00F
HOUSTON        PTCLDY    86  74  67 SW8       29.99S
LUFKIN         CLEAR     84  76  76 SW5       29.99S
TYLER          CLEAR     82  75  79 S6        29.99S
DAL FT WORTH   CLEAR     89  71  55 SE10      29.97R
$$


!TXZ136-TXZ165-010500
TYLER...LUFKIN RADIOS

CITY           SKY/WX    TMP DP  RH WIND       PRES   REMARKS
TYLER          CLEAR     82  75  79 S6        29.99S
GILMER         CLEAR     83  74  74 S3        29.98S
LONGVIEW       CLEAR     82  73  74 SW5       29.97F
LUFKIN         CLEAR     84  76  76 SW5       29.99S
$$

!TXZ136-TXZ165-010500
OTHER LOCATIONS...

CITY           SKY/WX    TMP DP  RH WIND       PRES   REMARKS
NACOGDOCHES    CLEAR     79  76  90 CALM      30.00S
BEAUMONT       CLEAR     80  79  96 SW5       29.98S
HOUSTON        PTCLDY    86  74  67 SW8       29.99S
COLLEGE STN    CLEAR     85  75  72 S7        29.99S
AUSTIN         PTCLDY    82  73  74 S9        30.00R
DAL FT WORTH   CLEAR     89  71  55 SE10      29.97R
TEXARKANA      CLEAR     86  76  71 SW6       29.98S
SHREVEPORT     CLEAR     86  75  69 S5        29.96F
FORT POLK      CLEAR     83  77  81 S3        29.99R
LAKE CHARLES   CLEAR     83  79  88 SW5       30.00R
$$



USA.gov is the U.S. government's official web portal to all federal, state and local government web resources and services.